Time,TemperatureF,DewpointF,PressureIn,WindDirection,WindDirectionDegrees,WindSpeedMPH,WindSpeedGustMPH,Humidity,HourlyPrecipIn,Conditions,Clouds,dailyrainin,SoftwareType,DateUTC
2013-02-08 00:01:00,37.9,30.7,29.96,South,180,0.0,1.8,75,0.00,,,0.13,WUHU21623XXSP,2013-02-08 05:01:00,
2013-02-08 00:11:00,38.1,30.9,29.95,SSE,157,0.0,0.0,75,0.00,,,0.00,WUHU21623XXSP,2013-02-08 05:11:00,
2013-02-08 00:21:00,37.8,30.5,29.95,SSE,157,0.0,0.0,75,0.00,,,0.00,WUHU21623XXSP,2013-02-08 05:21:00,
2013-02-08 00:31:00,37.9,30.7,29.95,SSE,157,0.0,0.0,75,0.00,,,0.00,WUHU21623XXSP,2013-02-08 05:31:00,
2013-02-08 00:41:00,37.9,30.7,29.95,SSE,157,0.0,0.0,75,0.00,,,0.00,WUHU21623XXSP,2013-02-08 05:41:00,
2013-02-08 00:51:00,37.8,30.5,29.94,SSE,157,0.0,0.0,75,0.00,,,0.00,WUHU21623XXSP,2013-02-08 05:51:00,
2013-02-08 01:01:00,37.6,30.4,29.94,SSE,157,0.0,0.0,75,0.00,,,0.00,WUHU21623XXSP,2013-02-08 06:01:00,
2013-02-08 01:11:00,37.4,30.5,29.93,South,180,0.0,0.0,76,0.00,,,0.00,WUHU21623XXSP,2013-02-08 06:11:00,
2013-02-08 01:21:00,37.4,30.5,29.93,SSW,202,0.0,0.0,76,0.00,,,0.00,WUHU21623XXSP,2013-02-08 06:21:00,
2013-02-08 01:31:00,37.6,30.7,29.93,SW,225,5.1,5.1,76,0.00,,,0.00,WUHU21623XXSP,2013-02-08 06:31:00,
2013-02-08 01:41:00,37.6,30.7,29.92,SE,135,0.0,0.0,76,0.00,,,0.00,WUHU21623XXSP,2013-02-08 06:41:00,
2013-02-08 01:51:00,37.6,30.7,29.92,South,180,0.0,1.3,76,0.00,,,0.00,WUHU21623XXSP,2013-02-08 06:51:00,
2013-02-08 02:01:00,37.6,30.4,29.91,SE,135,0.0,5.4,75,0.00,,,0.00,WUHU21623XXSP,2013-02-08 07:01:00,
2013-02-08 02:11:00,37.8,30.5,29.91,SSE,157,0.0,2.5,75,0.00,,,0.00,WUHU21623XXSP,2013-02-08 07:11:00,
2013-02-08 02:21:00,37.8,30.5,29.90,SSE,157,6.9,6.9,75,0.00,,,0.00,WUHU21623XXSP,2013-02-08 07:21:00,
2013-02-08 02:31:00,37.9,30.7,29.90,SSE,157,2.5,6.7,75,0.00,,,0.00,WUHU21623XXSP,2013-02-08 07:31:00,
2013-02-08 02:41:00,37.9,30.7,29.89,SSW,202,0.0,0.0,75,0.00,,,0.00,WUHU21623XXSP,2013-02-08 07:41:00,
2013-02-08 02:51:00,37.9,30.7,29.90,South,180,3.8,3.8,75,0.00,,,0.00,WUHU21623XXSP,2013-02-08 07:51:00,
2013-02-08 03:01:00,37.6,30.4,29.90,SSE,157,0.0,0.0,75,0.00,,,0.00,WUHU21623XXSP,2013-02-08 08:01:00,
2013-02-08 03:11:00,37.2,30.5,29.90,SW,225,0.0,0.0,76,0.00,,,0.00,WUHU21623XXSP,2013-02-08 08:11:00,
2013-02-08 03:21:00,37.2,30.3,29.89,SW,225,0.0,0.0,76,0.00,,,0.00,WUHU21623XXSP,2013-02-08 08:21:00,
2013-02-08 03:31:00,37.2,30.3,29.88,SW,225,0.0,0.0,76,0.00,,,0.00,WUHU21623XXSP,2013-02-08 08:31:00,
2013-02-08 03:41:00,37.2,30.7,29.88,South,180,0.0,2.5,77,0.00,,,0.00,WUHU21623XXSP,2013-02-08 08:41:00,
2013-02-08 03:51:00,37.2,30.3,29.88,SSE,157,0.0,2.5,76,0.00,,,0.00,WUHU21623XXSP,2013-02-08 08:51:00,
2013-02-08 04:01:00,37.0,30.5,29.88,SSW,202,4.0,7.4,77,0.00,,,0.00,WUHU21623XXSP,2013-02-08 09:01:00,
2013-02-08 04:11:00,37.0,30.5,29.87,South,180,0.0,4.0,77,0.00,,,0.00,WUHU21623XXSP,2013-02-08 09:11:00,
2013-02-08 04:21:00,37.2,30.3,29.87,South,180,0.0,0.0,76,0.00,,,0.00,WUHU21623XXSP,2013-02-08 09:21:00,
2013-02-08 04:31:00,36.9,30.3,29.87,South,180,0.0,0.0,77,0.00,,,0.00,WUHU21623XXSP,2013-02-08 09:31:00,
2013-02-08 04:41:00,36.7,30.1,29.87,South,180,0.0,0.0,77,0.00,,,0.00,WUHU21623XXSP,2013-02-08 09:41:00,
2013-02-08 04:51:00,36.3,29.8,29.86,South,180,0.0,2.2,77,0.00,,,0.00,WUHU21623XXSP,2013-02-08 09:51:00,
2013-02-08 05:01:00,36.3,30.1,29.86,South,180,0.0,2.0,78,0.00,,,0.00,WUHU21623XXSP,2013-02-08 10:01:00,
2013-02-08 05:11:00,36.3,30.1,29.86,South,180,0.0,0.0,78,0.00,,,0.00,WUHU21623XXSP,2013-02-08 10:11:00,
2013-02-08 05:21:00,36.3,30.1,29.86,South,180,0.0,0.0,78,0.00,,,0.00,WUHU21623XXSP,2013-02-08 10:21:00,
2013-02-08 05:31:00,36.5,30.3,29.86,South,180,0.0,0.0,78,0.00,,,0.00,WUHU21623XXSP,2013-02-08 10:31:00,
2013-02-08 05:41:00,37.0,30.5,29.85,South,180,0.0,1.1,77,0.00,,,0.00,WUHU21623XXSP,2013-02-08 10:41:00,
2013-02-08 05:51:00,37.2,30.3,29.85,South,180,0.0,1.3,76,0.00,,,0.00,WUHU21623XXSP,2013-02-08 10:51:00,
2013-02-08 06:01:00,37.2,30.3,29.85,SSW,202,0.0,2.0,76,0.00,,,0.00,WUHU21623XXSP,2013-02-08 11:01:00,
2013-02-08 06:11:00,37.2,30.3,29.85,SSW,202,0.0,1.8,76,0.00,,,0.00,WUHU21623XXSP,2013-02-08 11:11:00,
2013-02-08 06:21:00,37.2,30.7,29.85,South,180,0.0,2.2,77,0.00,,,0.00,WUHU21623XXSP,2013-02-08 11:21:00,
2013-02-08 06:31:00,37.4,30.5,29.84,South,180,0.0,0.0,76,0.00,,,0.00,WUHU21623XXSP,2013-02-08 11:31:00,
2013-02-08 06:41:00,37.4,30.7,29.84,SSE,157,0.0,0.7,76,0.00,,,0.00,WUHU21623XXSP,2013-02-08 11:41:00,
2013-02-08 06:51:00,37.6,30.7,29.84,SSE,157,0.0,0.4,76,0.00,,,0.00,WUHU21623XXSP,2013-02-08 11:51:00,
2013-02-08 07:01:00,37.2,30.3,29.84,SSE,157,0.0,0.0,76,0.00,,,0.00,WUHU21623XXSP,2013-02-08 12:01:00,
2013-02-08 07:11:00,37.2,30.3,29.84,SSE,157,0.0,0.0,76,0.00,,,0.00,WUHU21623XXSP,2013-02-08 12:11:00,
2013-02-08 07:21:00,37.2,30.3,29.84,SSE,157,0.0,0.0,76,0.00,,,0.00,WUHU21623XXSP,2013-02-08 12:21:00,
2013-02-08 07:31:00,37.2,30.3,29.84,SSE,157,0.0,0.0,76,0.00,,,0.00,WUHU21623XXSP,2013-02-08 12:31:00,
2013-02-08 07:41:00,37.0,30.2,29.84,SSE,157,0.0,0.0,76,0.00,,,0.00,WUHU21623XXSP,2013-02-08 12:41:00,
2013-02-08 07:51:00,37.0,30.5,29.84,SSE,157,0.0,0.0,77,0.00,,,0.00,WUHU21623XXSP,2013-02-08 12:51:00,
2013-02-08 08:01:00,37.2,30.7,29.84,SSE,157,0.0,0.0,77,0.00,,,0.00,WUHU21623XXSP,2013-02-08 13:01:00,
2013-02-08 08:11:00,37.4,30.8,29.84,SSE,157,0.0,0.0,77,0.00,,,0.00,WUHU21623XXSP,2013-02-08 13:11:00,
2013-02-08 08:21:00,37.9,31.4,29.83,South,180,0.0,0.0,77,0.00,,,0.00,WUHU21623XXSP,2013-02-08 13:21:00,
2013-02-08 08:31:00,38.8,31.9,29.82,South,180,2.7,2.7,76,0.00,,,0.00,WUHU21623XXSP,2013-02-08 13:31:00,
2013-02-08 08:41:00,39.4,32.1,29.82,SSW,202,0.0,2.7,75,0.00,,,0.00,WUHU21623XXSP,2013-02-08 13:41:00,
2013-02-08 08:51:00,40.5,32.8,29.82,South,180,0.0,0.9,74,0.00,,,0.00,WUHU21623XXSP,2013-02-08 13:51:00,
2013-02-08 09:01:00,40.8,32.8,29.81,South,180,0.0,1.8,73,0.00,,,0.00,WUHU21623XXSP,2013-02-08 14:01:00,
2013-02-08 09:11:00,41.4,33.3,29.81,South,180,0.0,2.9,73,0.00,,,0.00,WUHU21623XXSP,2013-02-08 14:11:00,
2013-02-08 09:21:00,41.5,33.5,29.81,South,180,0.0,0.0,73,0.00,,,0.00,WUHU21623XXSP,2013-02-08 14:21:00,
2013-02-08 09:31:00,41.7,33.7,29.81,SW,225,0.0,0.0,73,0.00,,,0.00,WUHU21623XXSP,2013-02-08 14:31:00,
2013-02-08 09:41:00,41.4,33.3,29.81,SW,225,0.0,0.0,73,0.00,,,0.00,WUHU21623XXSP,2013-02-08 14:41:00,
2013-02-08 09:51:00,40.8,33.2,29.82,SSW,202,0.0,0.0,73,0.00,,,0.00,WUHU21623XXSP,2013-02-08 14:51:00,
2013-02-08 10:01:00,40.5,33.4,29.82,SSW,202,0.0,3.1,76,0.01,,,0.01,WUHU21623XXSP,2013-02-08 15:01:00,
2013-02-08 10:11:00,39.9,33.6,29.83,SSW,202,0.0,0.0,78,0.02,,,0.02,WUHU21623XXSP,2013-02-08 15:11:00,
2013-02-08 10:21:00,39.7,33.8,29.83,SSW,202,0.0,1.6,79,0.02,,,0.02,WUHU21623XXSP,2013-02-08 15:21:00,
2013-02-08 10:31:00,39.4,33.8,29.83,SSW,202,0.0,0.0,80,0.02,,,0.02,WUHU21623XXSP,2013-02-08 15:31:00,
2013-02-08 10:41:00,39.2,33.9,29.84,SSW,202,0.0,0.0,81,0.03,,,0.03,WUHU21623XXSP,2013-02-08 15:41:00,
2013-02-08 10:51:00,39.0,33.7,29.84,SSW,202,0.0,4.3,81,0.04,,,0.04,WUHU21623XXSP,2013-02-08 15:51:00,
2013-02-08 11:01:00,38.8,33.8,29.84,SSW,202,0.0,1.8,82,0.06,,,0.07,WUHU21623XXSP,2013-02-08 16:01:00,
2013-02-08 11:11:00,38.8,34.1,29.83,SSW,202,0.9,0.9,83,0.07,,,0.08,WUHU21623XXSP,2013-02-08 16:11:00,
2013-02-08 11:21:00,39.0,34.3,29.83,SSW,202,0.0,0.0,83,0.07,,,0.09,WUHU21623XXSP,2013-02-08 16:21:00,
2013-02-08 11:31:00,39.0,34.6,29.83,SSW,202,0.0,0.0,84,0.08,,,0.11,WUHU21623XXSP,2013-02-08 16:31:00,
2013-02-08 11:41:00,39.0,34.6,29.83,South,180,0.0,0.0,84,0.07,,,0.11,WUHU21623XXSP,2013-02-08 16:41:00,
2013-02-08 11:51:00,38.8,34.4,29.83,SSW,202,0.0,0.0,84,0.06,,,0.11,WUHU21623XXSP,2013-02-08 16:51:00,
2013-02-08 12:01:00,38.8,34.4,29.83,South,180,0.0,0.0,84,0.04,,,0.11,WUHU21623XXSP,2013-02-08 17:01:00,
2013-02-08 12:11:00,38.7,34.2,29.83,SSW,202,0.7,0.7,84,0.02,,,0.11,WUHU21623XXSP,2013-02-08 17:11:00,
2013-02-08 12:21:00,38.5,34.3,29.84,WSW,247,0.0,0.0,85,0.02,,,0.11,WUHU21623XXSP,2013-02-08 17:21:00,
2013-02-08 12:31:00,38.7,34.5,29.83,West,270,0.0,1.6,85,0.00,,,0.11,WUHU21623XXSP,2013-02-08 17:31:00,
2013-02-08 12:41:00,38.5,34.3,29.84,WNW,292,0.0,2.7,85,0.00,,,0.11,WUHU21623XXSP,2013-02-08 17:41:00,
2013-02-08 12:51:00,38.5,34.3,29.84,West,270,0.0,0.0,85,0.00,,,0.11,WUHU21623XXSP,2013-02-08 17:51:00,
2013-02-08 13:01:00,38.3,34.2,29.85,West,270,0.0,0.0,85,0.00,,,0.11,WUHU21623XXSP,2013-02-08 18:01:00,
2013-02-08 13:11:00,37.9,33.5,29.85,WNW,292,0.0,1.6,84,0.00,,,0.11,WUHU21623XXSP,2013-02-08 18:11:00,
2013-02-08 13:21:00,37.8,33.0,29.85,WNW,292,4.7,6.9,83,0.00,,,0.11,WUHU21623XXSP,2013-02-08 18:21:00,
2013-02-08 13:31:00,37.6,32.6,29.86,WNW,292,0.0,8.1,82,0.00,,,0.11,WUHU21623XXSP,2013-02-08 18:31:00,
2013-02-08 13:41:00,37.4,32.1,29.86,WNW,292,8.1,8.1,81,0.00,,,0.11,WUHU21623XXSP,2013-02-08 18:41:00,
2013-02-08 13:51:00,37.2,31.9,29.86,WNW,292,3.8,3.8,80,0.00,,,0.11,WUHU21623XXSP,2013-02-08 18:51:00,
2013-02-08 14:01:00,36.7,31.4,29.87,WNW,292,4.5,8.1,81,0.00,,,0.11,WUHU21623XXSP,2013-02-08 19:01:00,
2013-02-08 14:11:00,36.5,31.2,29.87,West,270,0.0,0.0,81,0.00,,,0.11,WUHU21623XXSP,2013-02-08 19:11:00,
2013-02-08 14:21:00,36.3,31.0,29.87,WSW,247,5.4,5.4,81,0.00,,,0.11,WUHU21623XXSP,2013-02-08 19:21:00,
2013-02-08 14:31:00,36.0,30.4,29.88,West,270,4.5,8.1,80,0.00,,,0.11,WUHU21623XXSP,2013-02-08 19:31:00,
2013-02-08 14:42:00,35.8,29.9,29.88,WNW,292,7.2,12.8,79,0.00,,,0.11,WUHU21623XXSP,2013-02-08 19:42:00,
2013-02-08 14:52:00,35.4,29.2,29.89,NNW,337,15.2,15.2,78,0.00,,,0.11,WUHU21623XXSP,2013-02-08 19:52:00,
2013-02-08 15:02:00,35.2,29.0,29.89,WNW,292,7.6,12.1,79,0.00,,,0.11,WUHU21623XXSP,2013-02-08 20:02:00,
2013-02-08 15:12:00,34.7,29.1,29.90,NW,315,5.4,7.6,80,0.00,,,0.11,WUHU21623XXSP,2013-02-08 20:12:00,
2013-02-08 15:22:00,34.3,28.4,29.90,WNW,292,6.5,12.3,79,0.00,,,0.11,WUHU21623XXSP,2013-02-08 20:22:00,
2013-02-08 15:32:00,33.6,27.4,29.91,WNW,292,6.5,7.8,78,0.00,,,0.11,WUHU21623XXSP,2013-02-08 20:32:00,
2013-02-08 15:42:00,33.3,27.1,29.92,WNW,292,2.9,10.1,78,0.00,,,0.11,WUHU21623XXSP,2013-02-08 20:42:00,
2013-02-08 15:52:00,32.9,27.1,29.93,WNW,292,2.5,8.1,79,0.00,,,0.11,WUHU21623XXSP,2013-02-08 20:52:00,
2013-02-08 16:02:00,32.7,26.9,29.93,WNW,292,7.8,8.3,79,0.00,,,0.11,WUHU21623XXSP,2013-02-08 21:02:00,
2013-02-08 16:12:00,32.5,26.8,29.93,WNW,292,6.9,8.1,79,0.00,,,0.11,WUHU21623XXSP,2013-02-08 21:12:00,
2013-02-08 16:22:00,32.5,26.8,29.94,NW,315,7.8,7.8,79,0.00,,,0.11,WUHU21623XXSP,2013-02-08 21:22:00,
2013-02-08 16:32:00,32.4,26.6,29.95,NW,315,7.4,8.5,79,0.00,,,0.11,WUHU21623XXSP,2013-02-08 21:32:00,
2013-02-08 16:42:00,32.2,26.1,29.95,WNW,292,2.0,10.3,78,0.00,,,0.11,WUHU21623XXSP,2013-02-08 21:42:00,
2013-02-08 16:52:00,32.2,25.8,29.96,NW,315,7.4,8.3,77,0.00,,,0.11,WUHU21623XXSP,2013-02-08 21:52:00,
2013-02-08 17:02:00,32.0,25.6,29.97,WNW,292,6.9,7.4,77,0.00,,,0.11,WUHU21623XXSP,2013-02-08 22:02:00,
2013-02-08 17:12:00,31.8,25.4,29.97,NW,315,3.8,7.4,77,0.00,,,0.11,WUHU21623XXSP,2013-02-08 22:12:00,
2013-02-08 17:22:00,31.8,25.4,29.98,NW,315,4.7,7.6,77,0.00,,,0.11,WUHU21623XXSP,2013-02-08 22:22:00,
2013-02-08 17:32:00,31.6,24.9,29.99,WNW,292,6.5,11.4,76,0.00,,,0.11,WUHU21623XXSP,2013-02-08 22:32:00,
2013-02-08 17:42:00,31.3,24.3,29.99,NNW,337,6.7,13.0,75,0.00,,,0.11,WUHU21623XXSP,2013-02-08 22:42:00,
2013-02-08 17:52:00,31.1,24.1,30.00,NNW,337,6.5,8.1,75,0.00,,,0.11,WUHU21623XXSP,2013-02-08 22:52:00,
2013-02-08 18:02:00,30.7,23.7,30.00,NNW,337,6.9,10.1,75,0.00,,,0.11,WUHU21623XXSP,2013-02-08 23:02:00,
2013-02-08 18:12:00,30.6,23.5,30.01,NW,315,7.4,7.4,74,0.00,,,0.11,WUHU21623XXSP,2013-02-08 23:12:00,
2013-02-08 18:22:00,30.2,23.4,30.03,NNW,337,8.3,8.3,75,0.00,,,0.11,WUHU21623XXSP,2013-02-08 23:22:00,
2013-02-08 18:32:00,30.0,22.0,30.03,NW,315,6.5,11.2,72,0.00,,,0.11,WUHU21623XXSP,2013-02-08 23:32:00,
2013-02-08 18:42:00,29.8,21.9,30.04,WNW,292,10.5,15.2,72,0.00,,,0.11,WUHU21623XXSP,2013-02-08 23:42:00,
2013-02-08 18:52:00,29.5,21.8,30.05,NNW,337,6.9,18.6,73,0.00,,,0.11,WUHU21623XXSP,2013-02-08 23:52:00,
2013-02-08 19:02:00,29.3,22.0,30.06,NW,315,8.7,8.7,74,0.00,,,0.11,WUHU21623XXSP,2013-02-09 00:02:00,
2013-02-08 19:12:00,29.1,21.8,30.06,NNW,337,6.5,9.2,74,0.00,,,0.11,WUHU21623XXSP,2013-02-09 00:12:00,
2013-02-08 19:22:00,29.1,21.8,30.06,WNW,292,5.1,7.4,74,0.00,,,0.11,WUHU21623XXSP,2013-02-09 00:22:00,
2013-02-08 19:32:00,29.1,21.5,30.06,WNW,292,5.1,5.1,73,0.00,,,0.11,WUHU21623XXSP,2013-02-09 00:32:00,
2013-02-08 19:42:00,29.1,21.2,30.07,WNW,292,11.9,11.9,72,0.00,,,0.11,WUHU21623XXSP,2013-02-09 00:42:00,
2013-02-08 19:52:00,28.9,21.0,30.07,WNW,292,3.1,10.1,72,0.00,,,0.11,WUHU21623XXSP,2013-02-09 00:52:00,
2013-02-08 20:02:00,28.9,21.3,30.07,NW,315,7.4,7.4,73,0.00,,,0.11,WUHU21623XXSP,2013-02-09 01:02:00,
2013-02-08 20:12:00,28.8,21.5,30.07,NW,315,8.7,8.7,74,0.00,,,0.11,WUHU21623XXSP,2013-02-09 01:12:00,
2013-02-08 20:22:00,28.6,21.0,30.08,WNW,292,4.9,8.7,73,0.00,,,0.11,WUHU21623XXSP,2013-02-09 01:22:00,
2013-02-08 20:32:00,28.6,21.3,30.08,WNW,292,7.2,8.3,74,0.00,,,0.11,WUHU21623XXSP,2013-02-09 01:32:00,
2013-02-08 20:42:00,28.4,20.9,30.09,NW,315,5.1,11.2,73,0.00,,,0.11,WUHU21623XXSP,2013-02-09 01:42:00,
2013-02-08 20:52:00,28.2,20.7,30.09,WNW,292,7.4,9.2,73,0.00,,,0.11,WUHU21623XXSP,2013-02-09 01:52:00,
2013-02-08 21:02:00,28.0,20.7,30.11,NW,315,6.0,6.0,73,0.00,,,0.11,WUHU21623XXSP,2013-02-09 02:02:00,
2013-02-08 21:12:00,28.0,20.5,30.11,WNW,292,7.6,11.2,73,0.00,,,0.11,WUHU21623XXSP,2013-02-09 02:12:00,
2013-02-08 21:22:00,27.7,20.1,30.11,NW,315,8.3,8.3,73,0.00,,,0.11,WUHU21623XXSP,2013-02-09 02:22:00,
2013-02-08 21:32:00,27.7,20.1,30.12,NNW,337,5.6,8.7,73,0.00,,,0.11,WUHU21623XXSP,2013-02-09 02:32:00,
2013-02-08 21:42:00,27.5,19.7,30.13,WNW,292,8.1,10.7,72,0.00,,,0.11,WUHU21623XXSP,2013-02-09 02:42:00,
2013-02-08 21:52:00,27.3,19.5,30.13,NW,315,6.5,9.8,72,0.00,,,0.11,WUHU21623XXSP,2013-02-09 02:52:00,
2013-02-08 22:02:00,27.1,19.0,30.13,WNW,292,8.3,8.3,71,0.00,,,0.11,WUHU21623XXSP,2013-02-09 03:02:00,
2013-02-08 22:12:00,27.1,19.0,30.13,WNW,292,8.3,8.3,71,0.00,,,0.11,WUHU21623XXSP,2013-02-09 03:12:00,
2013-02-08 22:22:00,27.0,19.1,30.14,NW,315,7.8,8.9,72,0.00,,,0.11,WUHU21623XXSP,2013-02-09 03:22:00,
2013-02-08 22:32:00,26.8,19.2,30.14,West,270,4.0,7.8,73,0.00,,,0.11,WUHU21623XXSP,2013-02-09 03:32:00,
2013-02-08 22:42:00,26.8,19.2,30.14,WNW,292,7.6,7.6,73,0.00,,,0.11,WUHU21623XXSP,2013-02-09 03:42:00,
2013-02-08 22:52:00,26.6,18.4,30.14,WNW,292,8.1,8.1,71,0.00,,,0.11,WUHU21623XXSP,2013-02-09 03:52:00,
2013-02-08 23:02:00,26.6,19.1,30.13,West,270,2.7,8.3,73,0.00,,,0.11,WUHU21623XXSP,2013-02-09 04:02:00,
2013-02-08 23:12:00,26.6,19.1,30.13,WNW,292,4.0,8.9,73,0.00,,,0.11,WUHU21623XXSP,2013-02-09 04:12:00,
2013-02-08 23:22:00,26.4,18.9,30.14,WNW,292,4.7,7.2,73,0.00,,,0.11,WUHU21623XXSP,2013-02-09 04:22:00,
2013-02-08 23:32:00,26.4,19.2,30.15,NW,315,7.4,8.1,74,0.00,,,0.11,WUHU21623XXSP,2013-02-09 04:32:00,
2013-02-08 23:42:00,26.4,19.2,30.15,NW,315,8.9,8.9,74,0.00,,,0.11,WUHU21623XXSP,2013-02-09 04:42:00,
2013-02-08 23:52:00,26.2,19.3,30.16,NW,315,2.9,9.6,75,0.00,,,0.11,WUHU21623XXSP,2013-02-09 04:52:00,